User: anonymous   Login
Location: Unspecified
(0.0000°N, 0.0000°E)
Time: 08:26:54
(UTC+02:00)
Language:

Coronas F rocket - Orbit

View from above orbital plane
View from above orbital plane
View from above satellite
View from above satellite

Ground track
Ground track

The orbit data is extracted from the following two-line orbital elements,

1 26874U 01032B   16147.15775188  .00016865  00000-0  90036-4 0  9992
2 26874  82.4599 305.9828 0005781 283.8857  76.1767 15.80180890832167
Epoch (UTC): 26 May 2016 03:47:09
Eccentricity: 0.0005781
inclination: 82.4599°
perigee height: 326 km
apogee height: 334 km
right ascension of ascending node: 305.9828°
argument of perigee: 283.8857°
revolutions per day: 15.80180890
mean anomaly at epoch: 76.1767°
orbit number at epoch: 83216

The dashed part of the orbit path shows where the satellite is in the earth's shadow,  

DLR